sat.trackr.live / text

‹ back to catalog

STARLINK-3111

NORAD 49418 · 2021-104L

PAYLOAD ACTIVE UNKNOWN

§ Identity

Operator
Country
US
Launch date
2021-11-13
Launch site
AFETR
Launch vehicle
Mass (kg)
RCS (m²)

Purposes: comms

External: N2YO · Heavens-Above · Gunter

§ Orbital elements

Epoch: 2026-09-20T04:17:50.476416Z

Period
93.90 min
Inclination
53.1597°
Eccentricity
0.0001037
Mean motion
15.33552774 rev/d
Perigee alt
464.5 km
Apogee alt
465.9 km
Semi-major
6,843.4 km
B*
4.4310e-5
RAAN
63.3743°
Arg perigee
85.3161°
Mean anomaly
274.7959°
Rev number
26,815

§ Raw data

STARLINK-31111 49418U 21104L   26263.17905644  .00001085  00000+0  44310-4 0  99982 49418  53.1597  63.3743 0001037  85.3161 274.7959 15.33552774268156

JSON: /api/v1/satellites/49418 · /tle

For live sub-satellite position, see the globe view (requires WebGL).

§ Visibility from observer

Set your observer location to see the next 7 days of passes ≥ 10°. The values pass through the URL so the page stays shareable.

No JS? Fill the form by hand. The geolocation button needs JavaScript.